Home > Weather > Valencia > Past weeks

Flag for Spain Past Weather in Valencia, Spain — Yesterday and Last 2 Weeks

Now
77 °F

Clear.


Feels Like: 79 °F
Forecast: 71 / 94 °F
Wind: 1 mph from North

Location: Valencia / Aeropuerto

Current Time: Jul 29, 2016 at 2:17:22 AM

Latest Report: Jul 29, 2016 at 1:30 AM


Visibility: 10 mi

Pressure: 30.04 "Hg

Humidity: 74%

Dew Point: 68 °F

Location of ValenciaLocation

Past Weather in Valencia — Graph

°F

Valencia Temperature Yesterday

Maximum temperature yesterday: 88 °F (at 1:00 PM)
Minimum temperature yesterday: 72 °F (at 5:30 AM)
Average temperature yesterday: 81 °F

High & Low Weather Summary for the Past Weeks

 TemperatureHumidityPressure
High90 °F (Jul 20, 1:30 PM)83% (Jul 16, 6:30 AM)30.21 "Hg (Jul 16, 6:30 AM)
Low66 °F (Jul 17, 7:00 AM)29% (Jul 15, 8:30 AM)29.86 "Hg (Jul 22, 3:00 AM)
Average79 °F61%30.07 "Hg
* Reported Jul 14 1:00 AM — Jul 29 1:00 AM, Valencia, Weather by CustomWeather, © 2016

Note: Actual official high and low records may vary slightly from our data, if they occured in-between our weather recording intervals... More about our weather records

Advertising

Valencia Weather History for the Previous 24 Hours

Scroll right to see more
 ConditionsComfort  
Time TempWeatherWind HumidityBarometerVisibility
1:00 AM
Fri, Jul 29
79 °FClear.1 mph70%30.04 "Hg10 mi
12:30 AM79 °FClear.2 mph70%30.04 "Hg10 mi
12:00 AM79 °FPassing clouds.3 mph70%30.04 "HgN/A
11:30 PM
Thu, Jul 28
79 °FPassing clouds.3 mph74%30.04 "HgN/A
11:00 PM79 °FPassing clouds.3 mph74%30.04 "HgN/A
10:30 PM81 °FClear.6 mph70%30.04 "Hg10 mi
10:00 PM81 °FPassing clouds.6 mph70%30.04 "HgN/A
9:30 PM81 °FPassing clouds.7 mph66%30.01 "HgN/A
9:00 PM82 °FPassing clouds.7 mph62%30.01 "HgN/A
8:30 PM82 °FPassing clouds.9 mph55%30.01 "HgN/A
8:00 PM82 °FPassing clouds.9 mph62%30.01 "HgN/A
7:30 PM84 °FSunny.10 mph58%30.01 "Hg10 mi
7:00 PM84 °FPassing clouds.12 mph58%30.01 "HgN/A
6:30 PM84 °FPassing clouds.12 mph51%30.01 "HgN/A
6:00 PM86 °FPassing clouds.12 mph49%30.01 "HgN/A
5:30 PM86 °FPassing clouds.12 mph49%30.01 "HgN/A
5:00 PM88 °FPassing clouds.13 mph46%30.04 "HgN/A
4:30 PM88 °FPassing clouds.12 mph46%30.04 "HgN/A
4:00 PM88 °FPassing clouds.12 mph46%30.04 "HgN/A
3:30 PM88 °FPassing clouds.10 mph46%30.04 "HgN/A
3:00 PM88 °FPassing clouds.9 mph43%30.07 "HgN/A
2:30 PM88 °FPassing clouds.9 mph46%30.07 "HgN/A
2:00 PM88 °FPassing clouds.9 mph43%30.07 "HgN/A
1:30 PM88 °FPassing clouds.8 mph40%30.07 "HgN/A
1:00 PM88 °FPassing clouds.7 mph49%30.09 "HgN/A
12:30 PM86 °FPassing clouds.6 mph52%30.09 "HgN/A
12:00 PM86 °FPassing clouds.6 mph52%30.09 "HgN/A
11:30 AM84 °FPassing clouds.2 mph51%30.09 "HgN/A
11:00 AM84 °FPassing clouds.3 mph51%30.09 "HgN/A
10:30 AM82 °FPassing clouds.1 mph55%30.09 "HgN/A
10:00 AM81 °FPassing clouds.1 mph58%30.09 "HgN/A
9:30 AM81 °FPassing clouds.No wind54%30.09 "HgN/A
9:00 AM77 °FScattered clouds.1 mph54%30.09 "HgN/A
8:30 AM75 °FPassing clouds.1 mph57%30.09 "HgN/A
8:00 AM73 °FPassing clouds.1 mph65%30.07 "HgN/A
7:30 AM72 °FClear.No wind69%30.07 "Hg10 mi
7:00 AM72 °FClear.1 mph69%30.07 "Hg10 mi
6:30 AM72 °FClear.5 mph69%30.07 "Hg10 mi
6:00 AM72 °FClear.2 mph69%30.07 "Hg10 mi
5:30 AM72 °FClear.3 mph69%30.07 "Hg10 mi
5:00 AM73 °FClear.1 mph69%30.07 "Hg10 mi
4:30 AM73 °FClear.2 mph69%30.07 "Hg10 mi
4:00 AM73 °FClear.1 mph74%30.07 "Hg10 mi
3:30 AM75 °FClear.1 mph65%30.07 "Hg10 mi
3:00 AM75 °FClear.2 mph65%30.07 "Hg10 mi
2:30 AM75 °FClear.2 mph69%30.07 "Hg10 mi
2:00 AM75 °FClear.1 mph74%30.07 "Hg10 mi
Weather by CustomWeather, © 2016

See weather overviewHow to use our weather pages